Time,TemperatureF,DewpointF,PressureIn,WindDirection,WindDirectionDegrees,WindSpeedMPH,WindSpeedGustMPH,Humidity,HourlyPrecipIn,Conditions,Clouds,dailyrainin,SoftwareType,DateUTC
2013-02-02 00:02:00,34.0,29.0,30.16,WNW,300,1.0,4.0,82,0.00,,,0.00,,2013-02-02 06:02:00,
2013-02-02 00:12:00,34.0,29.0,30.16,WNW,300,1.0,4.0,82,0.00,,,0.00,,2013-02-02 06:12:00,
2013-02-02 00:22:00,33.0,28.0,30.16,WNW,300,1.0,4.0,83,0.00,,,0.00,,2013-02-02 06:22:00,
2013-02-02 00:31:00,31.0,27.0,30.17,WNW,302,1.0,4.0,85,0.00,,,0.00,,2013-02-02 06:31:00,
2013-02-02 00:41:00,31.0,27.0,30.17,WNW,302,1.0,4.0,85,0.00,,,0.00,,2013-02-02 06:41:00,
2013-02-02 00:51:00,30.0,26.0,30.17,NW,306,1.0,4.0,86,0.00,,,0.00,,2013-02-02 06:51:00,
2013-02-02 01:02:00,30.0,26.0,30.17,NW,306,1.0,4.0,86,0.00,,,0.00,,2013-02-02 07:02:00,
2013-02-02 01:11:00,30.0,26.0,30.17,NW,306,1.0,4.0,86,0.00,,,0.00,,2013-02-02 07:11:00,
2013-02-02 01:21:00,31.0,28.0,30.17,NW,308,2.0,8.0,87,0.00,,,0.00,,2013-02-02 07:21:00,
2013-02-02 01:31:00,30.0,27.0,30.17,WNW,301,4.0,7.0,87,0.00,,,0.00,,2013-02-02 07:31:00,
2013-02-02 01:42:00,30.0,27.0,30.17,WNW,301,4.0,7.0,87,0.00,,,0.00,,2013-02-02 07:42:00,
2013-02-02 01:51:00,29.0,26.0,30.16,WNW,294,2.0,4.0,88,0.00,,,0.00,,2013-02-02 07:51:00,
2013-02-02 02:01:00,28.0,25.0,30.16,WNW,300,0.0,3.0,89,0.00,,,0.00,,2013-02-02 08:01:00,
2013-02-02 02:11:00,28.0,25.0,30.16,WNW,300,0.0,3.0,89,0.00,,,0.00,,2013-02-02 08:11:00,
2013-02-02 02:21:00,28.0,25.0,30.16,WNW,300,0.0,4.0,90,0.00,,,0.00,,2013-02-02 08:21:00,
2013-02-02 02:31:00,29.0,26.0,30.16,WNW,300,0.0,3.0,90,0.00,,,0.00,,2013-02-02 08:31:00,
2013-02-02 02:41:00,29.0,26.0,30.16,WNW,300,0.0,3.0,90,0.00,,,0.00,,2013-02-02 08:41:00,
2013-02-02 02:52:00,28.0,25.0,30.17,WNW,302,3.0,5.0,90,0.00,,,0.00,,2013-02-02 08:52:00,
2013-02-02 03:01:00,29.0,27.0,30.16,WNW,302,0.0,5.0,91,0.00,,,0.00,,2013-02-02 09:01:00,
2013-02-02 03:11:00,29.0,27.0,30.16,WNW,302,0.0,5.0,91,0.00,,,0.00,,2013-02-02 09:11:00,
2013-02-02 03:22:00,30.0,27.0,30.16,WNW,302,1.0,4.0,90,0.00,,,0.00,,2013-02-02 09:22:00,
2013-02-02 03:31:00,29.0,26.0,30.17,WNW,285,1.0,5.0,90,0.00,,,0.00,,2013-02-02 09:31:00,
2013-02-02 03:41:00,29.0,26.0,30.17,WNW,285,1.0,5.0,90,0.00,,,0.00,,2013-02-02 09:41:00,
2013-02-02 03:52:00,29.0,26.0,30.17,West,276,2.0,4.0,90,0.00,,,0.00,,2013-02-02 09:52:00,
2013-02-02 04:01:00,27.0,24.0,30.18,WNW,287,2.0,6.0,88,0.00,,,0.00,,2013-02-02 10:01:00,
2013-02-02 04:11:00,27.0,24.0,30.18,WNW,287,2.0,6.0,88,0.00,,,0.00,,2013-02-02 10:11:00,
2013-02-02 04:21:00,25.0,23.0,30.18,WNW,297,3.0,7.0,91,0.00,,,0.00,,2013-02-02 10:21:00,
2013-02-02 04:31:00,27.0,25.0,30.18,NNW,346,3.0,7.0,93,0.00,,,0.00,,2013-02-02 10:31:00,
2013-02-02 04:42:00,27.0,25.0,30.18,NNW,346,3.0,7.0,93,0.00,,,0.00,,2013-02-02 10:42:00,
2013-02-02 04:52:00,28.0,26.0,30.18,WNW,298,2.0,5.0,92,0.00,,,0.00,,2013-02-02 10:52:00,
2013-02-02 05:01:00,29.0,27.0,30.17,WNW,294,1.0,4.0,92,0.00,,,0.00,,2013-02-02 11:01:00,
2013-02-02 05:11:00,29.0,27.0,30.17,WNW,294,1.0,4.0,92,0.00,,,0.00,,2013-02-02 11:11:00,
2013-02-02 05:21:00,29.0,27.0,30.18,WNW,296,3.0,7.0,91,0.00,,,0.00,,2013-02-02 11:21:00,
2013-02-02 05:32:00,29.0,27.0,30.17,WNW,300,4.0,7.0,91,0.00,,,0.00,,2013-02-02 11:32:00,
2013-02-02 05:42:00,29.0,27.0,30.17,WNW,300,4.0,7.0,91,0.00,,,0.00,,2013-02-02 11:42:00,
2013-02-02 05:52:00,29.0,27.0,30.18,NW,309,6.0,7.0,91,0.00,,,0.00,,2013-02-02 11:52:00,
2013-02-02 06:01:00,29.0,26.0,30.18,NW,304,6.0,9.0,90,0.00,,,0.00,,2013-02-02 12:01:00,
2013-02-02 06:11:00,29.0,26.0,30.18,NW,304,6.0,9.0,90,0.00,,,0.00,,2013-02-02 12:11:00,
2013-02-02 06:22:00,30.0,27.0,30.18,West,274,5.0,8.0,88,0.00,,,0.00,,2013-02-02 12:22:00,
2013-02-02 06:32:00,30.0,27.0,30.18,WNW,285,5.0,8.0,88,0.00,,,0.00,,2013-02-02 12:32:00,
2013-02-02 06:42:00,30.0,27.0,30.18,WNW,285,5.0,8.0,88,0.00,,,0.00,,2013-02-02 12:42:00,
2013-02-02 06:52:00,29.0,26.0,30.19,WNW,299,3.0,8.0,89,0.00,,,0.00,,2013-02-02 12:52:00,
2013-02-02 07:02:00,30.0,27.0,30.19,WNW,285,7.0,10.0,89,0.00,,,0.00,,2013-02-02 13:02:00,
2013-02-02 07:11:00,30.0,27.0,30.19,WNW,285,7.0,10.0,89,0.00,,,0.00,,2013-02-02 13:11:00,
2013-02-02 07:21:00,32.0,29.0,30.19,WNW,288,6.0,9.0,87,0.00,,,0.00,,2013-02-02 13:21:00,
2013-02-02 07:32:00,32.0,28.0,30.19,West,280,6.0,10.0,86,0.00,,,0.00,,2013-02-02 13:32:00,
2013-02-02 07:42:00,32.0,28.0,30.19,West,280,6.0,10.0,86,0.00,,,0.00,,2013-02-02 13:42:00,
2013-02-02 07:52:00,32.0,28.0,30.19,NW,306,4.0,8.0,86,0.00,,,0.00,,2013-02-02 13:52:00,
2013-02-02 08:02:00,31.0,27.0,30.19,NW,305,3.0,7.0,86,0.00,,,0.00,,2013-02-02 14:02:00,
2013-02-02 08:11:00,31.0,27.0,30.19,NW,305,3.0,7.0,86,0.00,,,0.00,,2013-02-02 14:11:00,
2013-02-02 08:22:00,29.0,26.0,30.20,NW,311,3.0,6.0,87,0.00,,,0.00,,2013-02-02 14:22:00,
2013-02-02 08:32:00,29.0,26.0,30.20,NW,317,3.0,8.0,89,0.00,,,0.00,,2013-02-02 14:32:00,
2013-02-02 08:42:00,29.0,26.0,30.20,NW,317,3.0,8.0,89,0.00,,,0.00,,2013-02-02 14:42:00,
2013-02-02 08:52:00,29.0,26.0,30.20,NW,306,3.0,5.0,89,0.00,,,0.00,,2013-02-02 14:52:00,
2013-02-02 09:03:00,31.0,28.0,30.21,WNW,302,5.0,8.0,89,0.00,,,0.00,,2013-02-02 15:03:00,
2013-02-02 09:12:00,31.0,28.0,30.21,WNW,302,5.0,8.0,89,0.00,,,0.00,,2013-02-02 15:12:00,
2013-02-02 09:22:00,33.0,30.0,30.21,WNW,296,5.0,9.0,88,0.00,,,0.00,,2013-02-02 15:22:00,
2013-02-02 09:32:00,35.0,30.0,30.21,WNW,288,6.0,11.0,83,0.00,,,0.00,,2013-02-02 15:32:00,
2013-02-02 09:42:00,35.0,30.0,30.21,WNW,288,6.0,11.0,83,0.00,,,0.00,,2013-02-02 15:42:00,
2013-02-02 09:52:00,37.0,31.0,30.21,WNW,300,9.0,16.0,80,0.00,,,0.00,,2013-02-02 15:52:00,
2013-02-02 10:03:00,38.0,31.0,30.21,NW,304,10.0,17.0,77,0.00,,,0.00,,2013-02-02 16:03:00,
2013-02-02 10:11:00,38.0,31.0,30.21,NW,304,10.0,17.0,77,0.00,,,0.00,,2013-02-02 16:11:00,
2013-02-02 10:22:00,39.0,31.0,30.21,NW,320,11.0,17.0,73,0.00,,,0.00,,2013-02-02 16:22:00,
2013-02-02 10:32:00,40.0,31.0,30.21,WNW,293,8.0,18.0,71,0.00,,,0.00,,2013-02-02 16:32:00,
2013-02-02 10:42:00,40.0,31.0,30.21,WNW,293,8.0,18.0,71,0.00,,,0.00,,2013-02-02 16:42:00,
2013-02-02 10:52:00,41.0,31.0,30.21,NW,317,8.0,17.0,67,0.00,,,0.00,,2013-02-02 16:52:00,
2013-02-02 11:02:00,42.0,31.0,30.22,WNW,299,8.0,14.0,64,0.00,,,0.00,,2013-02-02 17:02:00,
2013-02-02 11:11:00,42.0,31.0,30.22,WNW,299,8.0,14.0,64,0.00,,,0.00,,2013-02-02 17:11:00,
2013-02-02 11:22:00,43.0,30.0,30.21,WNW,292,12.0,18.0,61,0.00,,,0.00,,2013-02-02 17:22:00,
2013-02-02 11:32:00,44.0,30.0,30.21,WNW,297,10.0,20.0,58,0.00,,,0.00,,2013-02-02 17:32:00,
2013-02-02 11:42:00,44.0,30.0,30.21,WNW,297,10.0,20.0,58,0.00,,,0.00,,2013-02-02 17:42:00,
2013-02-02 11:52:00,45.0,30.0,30.21,WNW,283,7.0,17.0,55,0.00,,,0.00,,2013-02-02 17:52:00,
2013-02-02 12:02:00,46.0,29.0,30.20,North,5,8.0,20.0,52,0.00,,,0.00,,2013-02-02 18:02:00,
2013-02-02 12:12:00,46.0,29.0,30.20,North,5,8.0,20.0,52,0.00,,,0.00,,2013-02-02 18:12:00,
2013-02-02 12:22:00,47.0,29.0,30.20,WNW,301,12.0,20.0,50,0.00,,,0.00,,2013-02-02 18:22:00,
2013-02-02 12:32:00,48.0,30.0,30.19,NW,310,12.0,19.0,49,0.00,,,0.00,,2013-02-02 18:32:00,
2013-02-02 12:42:00,48.0,30.0,30.19,NW,310,12.0,19.0,49,0.00,,,0.00,,2013-02-02 18:42:00,
2013-02-02 12:52:00,49.0,28.0,30.19,NW,309,13.0,27.0,44,0.00,,,0.00,,2013-02-02 18:52:00,
2013-02-02 13:02:00,51.0,26.0,30.18,WNW,298,17.0,27.0,37,0.00,,,0.00,,2013-02-02 19:02:00,
2013-02-02 13:12:00,51.0,26.0,30.18,WNW,298,17.0,27.0,37,0.00,,,0.00,,2013-02-02 19:12:00,
2013-02-02 13:21:00,51.0,24.0,30.17,WNW,300,17.0,26.0,35,0.00,,,0.00,,2013-02-02 19:21:00,
2013-02-02 13:32:00,52.0,25.0,30.16,WNW,295,11.0,22.0,34,0.00,,,0.00,,2013-02-02 19:32:00,
2013-02-02 13:42:00,52.0,25.0,30.16,WNW,295,11.0,22.0,34,0.00,,,0.00,,2013-02-02 19:42:00,
2013-02-02 13:52:00,52.0,24.0,30.16,NW,320,16.0,24.0,33,0.00,,,0.00,,2013-02-02 19:52:00,
2013-02-02 14:01:00,52.0,22.0,30.15,NW,316,14.0,23.0,31,0.00,,,0.00,,2013-02-02 20:01:00,
2013-02-02 14:11:00,52.0,22.0,30.15,NW,316,14.0,23.0,31,0.00,,,0.00,,2013-02-02 20:11:00,
2013-02-02 14:21:00,52.0,22.0,30.15,NW,312,15.0,25.0,31,0.00,,,0.00,,2013-02-02 20:21:00,
2013-02-02 14:32:00,52.0,24.0,30.14,WNW,296,14.0,31.0,33,0.00,,,0.00,,2013-02-02 20:32:00,
2013-02-02 14:42:00,52.0,24.0,30.14,WNW,296,14.0,31.0,33,0.00,,,0.00,,2013-02-02 20:42:00,
2013-02-02 14:52:00,53.0,25.0,30.14,West,269,16.0,23.0,33,0.00,,,0.00,,2013-02-02 20:52:00,
2013-02-02 15:02:00,53.0,25.0,30.14,NW,310,15.0,21.0,33,0.00,,,0.00,,2013-02-02 21:02:00,
2013-02-02 15:11:00,53.0,25.0,30.14,NW,310,15.0,21.0,33,0.00,,,0.00,,2013-02-02 21:11:00,
2013-02-02 15:21:00,53.0,25.0,30.13,NW,319,14.0,22.0,33,0.00,,,0.00,,2013-02-02 21:21:00,
2013-02-02 15:32:00,53.0,25.0,30.13,NW,313,17.0,29.0,33,0.00,,,0.00,,2013-02-02 21:32:00,
2013-02-02 15:42:00,53.0,25.0,30.13,NW,313,17.0,29.0,33,0.00,,,0.00,,2013-02-02 21:42:00,
2013-02-02 15:52:00,53.0,23.0,30.13,NNW,329,16.0,24.0,31,0.00,,,0.00,,2013-02-02 21:52:00,
2013-02-02 16:02:00,53.0,23.0,30.13,NNW,329,16.0,24.0,31,0.00,,,0.00,,2013-02-02 22:02:00,
2013-02-02 16:11:00,53.0,23.0,30.13,NNW,329,16.0,24.0,31,0.00,,,0.00,,2013-02-02 22:11:00,
2013-02-02 16:21:00,53.0,22.0,30.14,North,5,11.0,26.0,29,0.00,,,0.00,,2013-02-02 22:21:00,
2013-02-02 16:32:00,53.0,22.0,30.14,North,5,11.0,22.0,29,0.00,,,0.00,,2013-02-02 22:32:00,
2013-02-02 16:42:00,53.0,22.0,30.14,North,5,11.0,22.0,29,0.00,,,0.00,,2013-02-02 22:42:00,
2013-02-02 16:52:00,52.0,21.0,30.15,NW,317,12.0,27.0,29,0.00,,,0.00,,2013-02-02 22:52:00,
2013-02-02 17:02:00,52.0,21.0,30.15,NNE,16,18.0,29.0,29,0.00,,,0.00,,2013-02-02 23:02:00,
2013-02-02 17:11:00,52.0,21.0,30.15,NNE,16,18.0,29.0,29,0.00,,,0.00,,2013-02-02 23:11:00,
2013-02-02 17:21:00,52.0,22.0,30.16,North,355,12.0,29.0,30,0.00,,,0.00,,2013-02-02 23:21:00,
2013-02-02 17:32:00,51.0,21.0,30.16,North,355,15.0,24.0,31,0.00,,,0.00,,2013-02-02 23:32:00,
2013-02-02 17:42:00,51.0,21.0,30.16,North,355,15.0,24.0,31,0.00,,,0.00,,2013-02-02 23:42:00,
2013-02-02 17:52:00,50.0,22.0,30.16,North,360,13.0,26.0,33,0.00,,,0.00,,2013-02-02 23:52:00,
2013-02-02 18:02:00,49.0,23.0,30.17,North,10,9.0,18.0,35,0.00,,,0.00,,2013-02-03 00:02:00,
2013-02-02 18:11:00,49.0,23.0,30.17,North,10,9.0,18.0,35,0.00,,,0.00,,2013-02-03 00:11:00,
2013-02-02 18:22:00,48.0,24.0,30.17,NW,309,5.0,12.0,38,0.00,,,0.00,,2013-02-03 00:22:00,
2013-02-02 18:32:00,46.0,23.0,30.18,WNW,285,7.0,11.0,40,0.00,,,0.00,,2013-02-03 00:32:00,
2013-02-02 18:41:00,46.0,23.0,30.18,WNW,285,7.0,11.0,40,0.00,,,0.00,,2013-02-03 00:41:00,
2013-02-02 18:52:00,46.0,24.0,30.19,WNW,292,10.0,17.0,41,0.00,,,0.00,,2013-02-03 00:52:00,
2013-02-02 19:01:00,43.0,23.0,30.19,WNW,302,6.0,10.0,45,0.00,,,0.00,,2013-02-03 01:01:00,
2013-02-02 19:02:00,45.0,23.0,30.19,WNW,292,7.0,14.0,42,0.00,,,0.00,,2013-02-03 01:02:00,
2013-02-02 19:11:00,45.0,23.0,30.19,WNW,292,7.0,14.0,42,0.00,,,0.00,,2013-02-03 01:11:00,
2013-02-02 19:21:00,43.0,23.0,30.19,WNW,302,6.0,10.0,45,0.00,,,0.00,,2013-02-03 01:21:00,
2013-02-02 19:32:00,43.0,23.0,30.19,WNW,302,6.0,10.0,45,0.00,,,0.00,,2013-02-03 01:32:00,
2013-02-02 19:42:00,43.0,23.0,30.19,WNW,302,6.0,10.0,45,0.00,,,0.00,,2013-02-03 01:42:00,
2013-02-02 19:52:00,43.0,23.0,30.19,WNW,302,6.0,10.0,45,0.00,,,0.00,,2013-02-03 01:52:00,
2013-02-02 23:22:00,36.0,25.0,30.25,WNW,292,5.0,10.0,65,0.00,,,0.00,,2013-02-03 05:22:00,
2013-02-02 23:32:00,36.0,25.0,30.25,NW,306,5.0,9.0,65,0.00,,,0.00,,2013-02-03 05:32:00,
2013-02-02 23:42:00,36.0,25.0,30.25,NW,306,5.0,9.0,65,0.00,,,0.00,,2013-02-03 05:42:00,
2013-02-02 23:52:00,36.0,26.0,30.26,NNW,330,3.0,7.0,67,0.00,,,0.00,,2013-02-03 05:52:00,